TimeEST,TemperatureF,Dew PointF,Humidity,Sea Level PressureIn,VisibilityMPH,Wind Direction,Wind SpeedMPH,Gust SpeedMPH,PrecipitationIn,Events,Conditions,WindDirDegrees,DateUTC
12:53 AM,70.0,68.0,93,30.11,10.0,NW,4.6,-,N/A,,Scattered Clouds,310,2013-01-07 05:53:00
1:53 AM,69.1,66.0,90,30.10,10.0,Calm,Calm,-,N/A,,Scattered Clouds,0,2013-01-07 06:53:00
2:53 AM,68.0,66.0,93,30.09,10.0,NW,3.5,-,N/A,,Scattered Clouds,320,2013-01-07 07:53:00
3:53 AM,68.0,66.9,96,30.09,10.0,NW,4.6,-,N/A,,Mostly Cloudy,320,2013-01-07 08:53:00
4:53 AM,70.0,66.9,90,30.08,10.0,NNW,3.5,-,N/A,,Mostly Cloudy,340,2013-01-07 09:53:00
5:53 AM,69.1,66.0,90,30.09,10.0,Calm,Calm,-,N/A,,Mostly Cloudy,0,2013-01-07 10:53:00
6:53 AM,66.0,64.0,93,30.12,10.0,NW,4.6,-,N/A,,Scattered Clouds,320,2013-01-07 11:53:00
7:43 AM,69.8,66.2,88,30.14,10.0,North,4.6,-,N/A,,Mostly Cloudy,360,2013-01-07 12:43:00
7:53 AM,70.0,66.9,90,30.14,10.0,North,6.9,-,N/A,,Mostly Cloudy,350,2013-01-07 12:53:00
8:53 AM,73.9,68.0,82,30.15,10.0,North,11.5,-,N/A,,Mostly Cloudy,350,2013-01-07 13:53:00
9:53 AM,75.0,68.0,79,30.16,10.0,North,9.2,-,N/A,,Mostly Cloudy,10,2013-01-07 14:53:00
10:53 AM,75.9,66.9,74,30.16,10.0,North,10.4,-,N/A,,Mostly Cloudy,360,2013-01-07 15:53:00
11:53 AM,77.0,66.9,71,30.13,10.0,NNW,11.5,-,N/A,,Mostly Cloudy,340,2013-01-07 16:53:00
12:53 PM,75.9,66.9,74,30.11,10.0,NNE,11.5,-,N/A,,Overcast,30,2013-01-07 17:53:00
1:03 PM,75.2,66.2,73,30.11,7.0,NNE,11.5,-,0.00,Rain,Light Rain,20,2013-01-07 18:03:00
1:53 PM,75.9,68.0,76,30.09,10.0,NNE,9.2,-,0.01,Rain,Light Rain,20,2013-01-07 18:53:00
2:25 PM,73.4,66.2,78,30.09,10.0,ENE,8.1,-,0.00,,Overcast,70,2013-01-07 19:25:00
2:53 PM,75.9,66.9,74,30.09,10.0,NNE,9.2,-,0.00,,Overcast,30,2013-01-07 19:53:00
3:53 PM,73.9,66.9,79,30.09,10.0,NNE,9.2,-,N/A,,Overcast,30,2013-01-07 20:53:00
4:53 PM,73.9,66.9,79,30.10,10.0,North,5.8,-,0.00,,Overcast,10,2013-01-07 21:53:00
5:53 PM,73.0,66.9,81,30.11,10.0,North,5.8,-,N/A,,Overcast,350,2013-01-07 22:53:00
6:53 PM,72.0,66.9,84,30.12,10.0,North,3.5,-,N/A,,Overcast,10,2013-01-07 23:53:00
7:53 PM,73.0,68.0,84,30.13,10.0,Calm,Calm,-,N/A,,Mostly Cloudy,0,2013-01-08 00:53:00
8:53 PM,75.0,69.1,82,30.14,10.0,NNE,6.9,-,N/A,,Overcast,30,2013-01-08 01:53:00
9:53 PM,75.0,68.0,79,30.14,10.0,ENE,9.2,-,N/A,,Scattered Clouds,70,2013-01-08 02:53:00
10:53 PM,73.9,68.0,82,30.13,10.0,ENE,8.1,-,N/A,,Mostly Cloudy,70,2013-01-08 03:53:00
11:53 PM,73.9,69.1,85,30.12,10.0,East,10.4,-,0.00,,Mostly Cloudy,90,2013-01-08 04:53:00